FW6870 Weather Reports


Display with metric or nautical units.
time (UTC)temp
F
wind
direction
speed
MPH
gust
MPH
rain 1hr
in
rain 24hr
in
rain mn
in
humidity
%
barometer
mb
20260509153032 62 259 3.0 8.0 0.00 0.00 0.00 87 1013.6
20260509151529 61 231 5.0 11.0 0.00 0.00 0.00 86 1013.8
20260509150031 61 267 4.0 8.0 0.00 0.00 0.00 86 1013.5
20260509144526 61 276 3.0 6.0 0.00 0.00 0.00 85 1013.4
20260509143026 61 269 4.0 8.0 0.00 0.00 0.00 85 1013.4
20260509141535 61 238 2.0 5.0 0.00 0.00 0.00 85 1013.2
20260509140035 61 240 3.0 8.0 0.00 0.00 0.00 86 1012.8
20260509134530 61 235 4.0 8.0 0.00 0.00 0.00 86 1013.0
20260509133033 60 245 2.0 5.0 0.00 0.00 0.00 89 1012.9
20260509131538 59 0 0.0 4.0 0.00 0.00 0.00 91 1012.6
20260509130042 58 0 0.0 2.0 0.00 0.00 0.00 91 1013.1
20260509124535 57 0 0.0 1.0 0.00 0.00 0.00 90 1013.1
20260509123030 57 0 1.0 4.0 0.00 0.00 0.00 89 1013.3
20260509121531 57 242 2.0 4.0 0.00 0.00 0.00 89 1013.6
20260509120026 57 242 2.0 3.0 0.00 0.00 0.00 88 1013.4
20260509114527 58 242 1.0 4.0 0.00 0.00 0.00 88 1013.3
20260509113028 58 241 2.0 4.0 0.00 0.00 0.00 88 1013.3
20260509084534 57 254 3.0 4.0 0.00 0.00 0.00 87 1012.9
20260509083026 58 0 0.0 0.0 0.00 0.00 0.00 87 1012.8
20260509081539 58 0 0.0 0.0 0.00 0.00 0.00 87 1012.7
20260509080026 58 0 0.0 0.0 0.00 0.00 0.00 88 1012.4
20260509074528 58 0 0.0 0.0 0.00 0.00 0.00 88 1012.7
20260509073029 58 0 0.0 0.0 0.00 0.00 0.00 87 1012.7
20260509071528 58 0 0.0 0.0 0.00 0.00 0.00 85 1013.1
20260509070026 59 0 0.0 0.0 0.00 0.00 0.00 84 1013.1
20260509064528 60 0 0.0 0.0 0.00 0.00 0.00 83 1013.7
20260509063028 60 0 0.0 3.0 0.00 0.00 0.00 82 1014.0
20260509061529 60 252 3.0 4.0 0.00 0.00 0.00 82 1014.2
20260509060027 60 252 3.0 4.0 0.00 0.00 0.00 82 1014.2
20260509054539 60 248 2.0 4.0 0.00 0.00 0.00 82 1014.2
20260509053100 60 246 3.0 5.0 0.00 0.00 0.00 82 1014.2
20260509051533 61 249 3.0 4.0 0.00 0.00 0.00 82 1014.5
20260509050039 61 269 3.0 4.0 0.00 0.00 0.00 82 1014.7
20260509044529 61 268 4.0 6.0 0.00 0.00 0.00 82 1014.7
20260509043030 61 245 3.0 4.0 0.00 0.00 0.00 82 1014.7
20260509041530 61 225 4.0 6.0 0.00 0.00 0.00 81 1015.2
20260509040030 61 231 5.0 8.0 0.00 0.00 0.00 81 1015.2
20260509034529 61 236 5.0 8.0 0.00 0.00 0.00 80 1015.5
20260509033026 61 225 5.0 8.0 0.00 0.00 0.00 78 1015.6
20260509031531 62 217 6.0 9.0 0.00 0.00 0.00 76 1015.8
20260509030035 62 200 6.0 8.0 0.00 0.00 0.00 74 1015.7
20260509024532 62 192 4.0 9.0 0.00 0.00 0.00 73 1015.4
20260509023035 63 194 5.0 7.0 0.00 0.00 0.00 73 1015.4
20260509021529 62 188 5.0 7.0 0.00 0.00 0.00 73 1015.4
20260509020028 63 193 5.0 9.0 0.00 0.00 0.00 73 1015.4
20260509014536 63 190 4.0 8.0 0.00 0.00 0.00 74 1015.3
20260509013030 63 202 5.0 6.0 0.00 0.00 0.00 73 1015.3
20260509011527 63 194 4.0 7.0 0.00 0.00 0.00 74 1015.0
20260509010028 63 197 5.0 7.0 0.00 0.00 0.00 73 1015.1
20260509004536 63 186 4.0 6.0 0.00 0.00 0.00 72 1014.9
20260509003043 64 175 5.0 7.0 0.00 0.00 0.00 71 1015.0
20260509001530 64 221 4.0 6.0 0.00 0.00 0.00 67 1015.0
20260509000029 64 219 5.0 6.0 0.00 0.00 0.00 68 1014.9
20260508234532 64 219 4.0 5.0 0.00 0.00 0.00 69 1014.7
20260508233030 65 230 4.0 6.0 0.00 0.00 0.00 69 1014.8
20260508231530 65 229 3.0 5.0 0.00 0.00 0.00 69 1014.9
20260508230032 65 67 4.0 8.0 0.00 0.00 0.00 68 1014.9
20260508224531 66 219 4.0 8.0 0.00 0.00 0.00 68 1014.8
20260508223029 66 227 5.0 9.0 0.00 0.00 0.00 66 1014.7
20260508221529 66 219 4.0 7.0 0.00 0.00 0.00 65 1014.8
20260508220028 67 75 3.0 5.0 0.00 0.00 0.00 65 1014.8
20260508214530 67 75 2.0 7.0 0.00 0.00 0.00 63 1014.7
20260508213027 67 80 4.0 8.0 0.00 0.00 0.00 61 1014.6
20260508211529 67 72 3.0 9.0 0.00 0.00 0.00 61 1014.7
20260508210032 67 68 5.0 10.0 0.00 0.00 0.00 60 1015.0
20260508204530 67 72 4.0 9.0 0.00 0.00 0.00 61 1014.9
20260508203031 68 78 4.0 8.0 0.00 0.00 0.00 59 1014.9
20260508201530 67 74 4.0 9.0 0.00 0.00 0.00 60 1015.2
20260508200031 67 88 2.0 10.0 0.00 0.00 0.00 58 1015.3
20260508194526 67 76 2.0 10.0 0.00 0.00 0.00 59 1015.4
20260508193028 68 69 5.0 12.0 0.00 0.00 0.00 59 1015.9
20260508191528 68 78 3.0 8.0 0.00 0.00 0.00 57 1016.0
20260508190038 68 59 5.0 14.0 0.00 0.00 0.00 61 1016.1
20260508184527 68 67 5.0 10.0 0.00 0.00 0.00 58 1016.2
20260508183028 67 0 1.0 11.0 0.00 0.00 0.00 58 1016.5
20260508181528 66 157 2.0 10.0 0.00 0.00 0.00 58 1016.7
20260508180028 66 79 2.0 5.0 0.00 0.00 0.00 58 1017.0
20260508174544 67 165 5.0 10.0 0.00 0.00 0.00 56 1017.2
20260508173032 66 204 3.0 13.0 0.00 0.00 0.00 58 1017.3
20260508171528 65 195 6.0 10.0 0.00 0.00 0.00 59 1017.5
20260508170031 64 184 5.0 14.0 0.00 0.00 0.00 60 1017.7
20260508164527 64 142 3.0 12.0 0.00 0.00 0.00 59 1018.1
20260508163041 65 183 8.0 12.0 0.00 0.00 0.00 57 1018.2
20260508161529 64 183 3.0 11.0 0.00 0.00 0.00 61 1018.4
20260508160027 64 134 1.0 9.0 0.00 0.00 0.00 64 1018.3
20260508154528 63 171 3.0 13.0 0.00 0.00 0.00 64 1018.4